Location: Sungai Anya
(2.6167°N, 114.0500°E)
Time: 11:13:41
(UTC+00:00)

Cosmos 332 Rocket - Pass Details

Date: 19 October 2021
Orbit: 682 x 703 km, 74.0° (Epoch: 28 November)

Event Time Altitude Azimuth Distance (km) Brightness Sun altitude
Rises 10:49:47 0° 194° (SSW) 3,084 7.5 -10.6°
Reaches altitude 10° 10:52:06 10° 195° (SSW) 2,165 6.7 -11.1°
Maximum altitude 10:56:59 82° 283° (WNW) 711 3.9 -12.3°
Drops below altitude 10° 11:01:52 10° 10° (N) 2,157 6.1 -13.5°
Sets 11:04:10 0° 11° (N) 3,071 6.9 -14.1°
